GW0378 Weather Reports


time (UTC)temp
F
wind
direction
speed
knots
gust
knots
rain 1hr
in
rain 24hr
in
rain mn
in
humidity
%
barometer
mb
20260504021314 73 270 1.7 3.5 0.00 0.00 0.00 31 1009.3
20260504020811 73 279 2.6 5.2 0.00 0.00 0.00 31 1009.5
20260504020308 73 305 1.7 5.2 0.00 0.00 0.00 31 1009.5
20260504015803 74 304 1.7 5.2 0.00 0.00 0.00 30 1009.5
20260504015300 74 270 2.6 6.1 0.00 0.00 0.00 30 1009.4
20260504014756 74 273 2.6 3.5 0.00 0.00 0.00 29 1009.3
20260504014252 75 289 2.6 3.5 0.00 0.00 0.00 29 1009.4
20260504013750 75 270 1.7 4.3 0.00 0.00 0.00 29 1009.4
20260504013248 76 308 2.6 3.5 0.00 0.00 0.00 28 1009.5
20260504012743 76 285 4.3 4.3 0.00 0.00 0.00 27 1009.4
20260504012242 76 248 0.0 2.6 0.00 0.00 0.00 28 1009.6
20260504011739 76 242 4.3 4.3 0.00 0.00 0.00 28 1009.4
20260504011235 76 286 4.3 4.3 0.00 0.00 0.00 26 1009.4
20260504010731 76 330 2.6 4.3 0.00 0.00 0.00 28 1009.5
20260504010227 76 310 3.5 4.3 0.00 0.00 0.00 28 1009.6
20260504005724 76 282 2.6 5.2 0.00 0.00 0.00 27 1009.7
20260504005221 77 217 1.7 2.6 0.00 0.00 0.00 26 1009.9
20260504004719 77 287 2.6 3.5 0.00 0.00 0.00 26 1009.7
20260504004215 76 329 3.5 4.3 0.00 0.00 0.00 27 1009.6
20260504003712 77 267 2.6 4.3 0.00 0.00 0.00 27 1009.9
20260504003209 76 90 0.0 2.6 0.00 0.00 0.00 25 1009.9
20260504002706 76 3 2.6 4.3 0.00 0.00 0.00 26 1010.0
20260504002203 77 324 1.7 2.6 0.00 0.00 0.00 25 1010.3
20260504001701 76 296 5.2 5.2 0.00 0.00 0.00 25 1009.9
20260504001157 76 288 2.6 5.2 0.00 0.00 0.00 28 1009.9
20260504000654 77 5 4.3 4.3 0.00 0.00 0.00 27 1010.3
20260504000151 77 28 2.6 7.0 0.00 0.00 0.00 25 1010.1
20260503235649 77 15 1.7 3.5 0.00 0.00 0.00 27 1010.1
20260503235145 77 231 2.6 2.6 0.00 0.00 0.00 27 1010.1
20260503234644 76 307 0.0 4.3 0.00 0.00 0.00 26 1010.5
20260503234142 77 270 0.0 2.6 0.00 0.00 0.00 25 1010.1
20260503233638 77 10 2.6 2.6 0.00 0.00 0.00 28 1010.4
20260503233134 76 273 3.5 8.7 0.00 0.00 0.00 26 1010.5
20260503232631 77 342 2.6 5.2 0.00 0.00 0.00 28 1010.5
20260503232128 76 325 2.6 3.5 0.00 0.00 0.00 27 1010.7
20260503231626 77 325 3.5 7.8 0.00 0.00 0.00 29 1010.6
20260503231122 76 282 3.5 8.7 0.00 0.00 0.00 29 1010.6
20260503230619 77 303 2.6 3.5 0.00 0.00 0.00 28 1010.7
20260503230117 76 75 1.7 4.3 0.00 0.00 0.00 28 1011.0
20260503225614 77 323 3.5 4.3 0.00 0.00 0.00 31 1010.9
20260503225113 78 0 0.9 1.7 0.00 0.00 0.00 30 1011.0
20260503224611 77 257 4.3 5.2 0.00 0.00 0.00 29 1011.1
20260503224109 76 263 3.5 4.3 0.00 0.00 0.00 30 1011.1
20260503223607 75 285 2.6 6.1 0.00 0.00 0.00 31 1011.0
20260503223102 75 58 2.6 6.1 0.00 0.00 0.00 30 1011.3
20260503222600 76 311 2.6 2.6 0.00 0.00 0.00 29 1011.3
20260503222058 74 257 0.0 6.1 0.00 0.00 0.00 29 1011.4
20260503221556 74 345 0.0 4.3 0.00 0.00 0.00 31 1011.3
20260503221053 75 250 1.7 4.3 0.00 0.00 0.00 32 1011.6
20260503220549 76 270 1.7 2.6 0.00 0.00 0.00 32 1011.7
20260503220046 74 18 1.7 4.3 0.00 0.00 0.00 32 1011.7
20260503215543 74 343 4.3 5.2 0.00 0.00 0.00 31 1011.9
20260503215040 75 274 2.6 4.3 0.00 0.00 0.00 31 1012.0
20260503214539 75 0 1.7 2.6 0.00 0.00 0.00 32 1012.1
20260503214035 75 20 3.5 3.5 0.00 0.00 0.00 32 1012.1
20260503213533 73 165 0.0 5.2 0.00 0.00 0.00 33 1012.4
20260503213030 74 278 4.3 5.2 0.00 0.00 0.00 31 1012.5
20260503212527 74 270 0.0 3.5 0.00 0.00 0.00 32 1012.4
20260503212024 72 331 2.6 3.5 0.00 0.00 0.00 34 1012.4
20260503211521 73 290 3.5 7.0 0.00 0.00 0.00 33 1012.5
20260503211017 73 252 4.3 6.1 0.00 0.00 0.00 33 1012.6
20260503210514 73 270 2.6 4.3 0.00 0.00 0.00 33 1012.7
20260503210010 72 305 3.5 4.3 0.00 0.00 0.00 33 1012.9
20260503205506 71 90 0.0 6.1 0.00 0.00 0.00 32 1012.9
20260503205003 73 248 2.6 6.1 0.00 0.00 0.00 33 1012.9
20260503204500 74 90 2.6 2.6 0.00 0.00 0.00 32 1013.0
20260503203956 72 240 0.0 2.6 0.00 0.00 0.00 33 1013.1
20260503203454 72 48 1.7 4.3 0.00 0.00 0.00 32 1013.2
20260503202950 72 342 1.7 5.2 0.00 0.00 0.00 34 1013.1
20260503202449 72 8 3.5 3.5 0.00 0.00 0.00 32 1013.2
20260503201947 72 270 5.2 6.1 0.00 0.00 0.00 33 1013.2
20260503201444 73 24 3.5 4.3 0.00 0.00 0.00 31 1013.5
20260503200941 73 106 0.9 2.6 0.00 0.00 0.00 32 1013.6
20260503200438 71 63 2.6 4.3 0.00 0.00 0.00 31 1013.5
20260503195934 71 270 0.0 2.6 0.00 0.00 0.00 31 1013.4
20260503195432 70 0 2.6 4.3 0.00 0.00 0.00 32 1013.8
20260503194928 71 297 4.3 4.3 0.00 0.00 0.00 34 1013.6
20260503194425 70 270 0.0 7.0 0.00 0.00 0.00 33 1013.8
20260503193920 71 345 0.0 2.6 0.00 0.00 0.00 35 1014.1
20260503193416 71 358 2.6 4.3 0.00 0.00 0.00 34 1014.0
20260503192912 70 83 3.5 3.5 0.00 0.00 0.00 35 1014.1
20260503192408 69 262 0.9 4.3 0.00 0.00 0.00 36 1014.1
20260503191904 69 254 0.0 2.6 0.00 0.00 0.00 38 1014.4
20260503191402 68 261 0.0 4.3 0.00 0.00 0.00 37 1014.5
20260503190858 68 22 1.7 6.1 0.00 0.00 0.00 39 1014.5
20260503190355 69 304 1.7 2.6 0.00 0.00 0.00 39 1014.5
20260503185852 68 340 2.6 4.3 0.00 0.00 0.00 40 1014.6
20260503185348 67 270 0.0 1.7 0.00 0.00 0.00 41 1014.7
20260503184848 66 297 2.6 3.5 0.00 0.00 0.00 40 1014.8
20260503184344 67 312 3.5 3.5 0.00 0.00 0.00 43 1014.8
20260503183840 67 99 4.3 5.2 0.00 0.00 0.00 46 1014.9
20260503183338 65 117 0.0 3.5 0.00 0.00 0.00 46 1015.0
20260503182835 65 274 2.6 4.3 0.00 0.00 0.00 48 1015.2
20260503182334 65 326 3.5 4.3 0.00 0.00 0.00 48 1015.4
20260503181831 63 315 2.6 5.2 0.00 0.00 0.00 50 1015.5
20260503181328 63 9 2.6 5.2 0.00 0.00 0.00 50 1015.4
20260503180824 62 192 1.7 4.3 0.00 0.00 0.00 50 1015.5
20260503180322 62 306 3.5 5.2 0.00 0.00 0.00 50 1015.7
20260503175818 63 307 3.5 5.2 0.00 0.00 0.00 50 1015.6
20260503175316 63 337 2.6 3.5 0.00 0.00 0.00 49 1015.9
20260503174812 62 0 0.9 1.7 0.00 0.00 0.00 51 1015.8
20260503174310 61 278 1.7 3.5 0.00 0.00 0.00 52 1015.9
20260503173806 61 336 6.1 6.1 0.00 0.00 0.00 51 1015.9
20260503173301 62 322 1.7 2.6 0.00 0.00 0.00 50 1016.2
20260503172758 61 347 4.3 4.3 0.00 0.00 0.00 53 1016.2
20260503172256 60 337 2.6 5.2 0.00 0.00 0.00 52 1016.5
20260503171752 59 320 2.6 5.2 0.00 0.00 0.00 53 1016.5
20260503171249 59 3 4.3 4.3 0.00 0.00 0.00 54 1016.1
20260503170746 59 357 1.7 5.2 0.00 0.00 0.00 54 1016.5
20260503170243 59 300 0.0 2.6 0.00 0.00 0.00 53 1016.6
20260503160205 54 294 0.0 3.5 0.00 0.00 0.00 59 1017.1
20260503150635 52 78 2.6 3.5 0.00 0.00 0.00 65 1017.4
20260503150131 50 346 0.9 3.5 0.00 0.00 0.00 67 1017.6
20260503131025 43 74 0.0 1.7 0.00 0.00 0.00 81 1017.2
20260503130522 42 114 0.9 1.7 0.00 0.00 0.00 82 1017.4
20260503110407 44 119 2.6 2.6 0.00 0.00 0.00 78 1017.5
20260503090258 46 106 2.6 3.5 0.00 0.00 0.00 72 1016.9
20260503081225 50 102 2.6 3.5 0.00 0.00 0.00 64 1016.6
20260503080721 49 105 3.5 4.3 0.00 0.00 0.00 66 1016.5
20260503080218 48 101 2.6 3.5 0.00 0.00 0.00 67 1016.5
20260503072655 50 94 1.7 2.6 0.00 0.00 0.00 65 1016.2
20260503072151 50 101 1.7 2.6 0.00 0.00 0.00 64 1016.5
20260503071649 51 108 2.6 2.6 0.00 0.00 0.00 63 1016.5
20260503071145 50 120 2.6 2.6 0.00 0.00 0.00 64 1016.1
20260503070642 51 120 1.7 3.5 0.00 0.00 0.00 63 1016.2
20260503070140 50 112 3.5 4.3 0.00 0.00 0.00 65 1016.4
20260503060104 51 100 2.6 2.6 0.00 0.00 0.00 64 1016.1
20260503055055 54 99 1.7 3.5 0.00 0.00 0.00 57 1016.0
20260503054551 54 100 2.6 2.6 0.00 0.00 0.00 55 1015.8
20260503054049 55 110 2.6 4.3 0.00 0.00 0.00 55 1015.8
20260503053547 55 96 2.6 5.2 0.00 0.00 0.00 55 1015.7
20260503053044 55 117 2.6 3.5 0.00 0.00 0.00 55 1016.0
20260503052541 55 112 1.7 4.3 0.00 0.00 0.00 54 1015.8
20260503052037 54 107 3.5 4.3 0.00 0.00 0.00 57 1016.0
20260503051533 53 95 2.6 3.5 0.00 0.00 0.00 58 1015.9
20260503051031 54 90 2.6 3.5 0.00 0.00 0.00 57 1015.7
20260503050526 55 117 2.6 3.5 0.00 0.00 0.00 55 1015.9
20260503050024 55 103 3.5 3.5 0.00 0.00 0.00 54 1015.9
20260503045521 55 119 3.5 7.0 0.00 0.00 0.00 55 1015.7
20260503045018 55 98 4.3 5.2 0.00 0.00 0.00 53 1015.9
20260503044514 55 94 5.2 5.2 0.00 0.00 0.00 55 1015.7
20260503044012 55 110 4.3 6.1 0.00 0.00 0.00 54 1015.9
20260503043508 56 90 4.3 4.3 0.00 0.00 0.00 54 1015.9
20260503043005 56 103 2.6 5.2 0.00 0.00 0.00 53 1015.7
20260503042502 56 105 3.5 5.2 0.00 0.00 0.00 53 1015.6
20260503041958 56 115 1.7 6.1 0.00 0.00 0.00 52 1015.8
20260503041455 57 98 6.1 7.8 0.00 0.00 0.00 52 1015.7
20260503040953 56 100 4.3 7.0 0.00 0.00 0.00 54 1015.7
20260503040450 55 108 4.3 4.3 0.00 0.00 0.00 56 1015.7
20260503035947 56 100 3.5 4.3 0.00 0.00 0.00 54 1015.6
20260503035444 56 111 4.3 5.2 0.00 0.00 0.00 54 1015.5
20260503034942 57 114 3.5 5.2 0.00 0.00 0.00 53 1015.5
20260503034438 57 108 4.3 5.2 0.00 0.00 0.00 52 1015.5
20260503033935 59 101 2.6 4.3 0.00 0.00 0.00 49 1015.2
20260503033433 58 103 0.9 3.5 0.00 0.00 0.00 50 1015.0
20260503032931 59 116 2.6 2.6 0.00 0.00 0.00 49 1015.2
20260503032429 60 86 2.6 3.5 0.00 0.00 0.00 48 1014.9
20260503031926 60 109 2.6 3.5 0.00 0.00 0.00 49 1015.0
20260503031424 60 105 1.7 2.6 0.00 0.00 0.00 48 1014.8
20260503030920 60 103 2.6 2.6 0.00 0.00 0.00 49 1014.9
20260503030417 61 124 1.7 2.6 0.00 0.00 0.00 48 1014.7
20260503025914 62 120 0.9 1.7 0.00 0.00 0.00 46 1015.0
20260503025411 63 261 0.0 0.0 0.00 0.00 0.00 43 1014.9
20260503024908 64 60 0.0 0.0 0.00 0.00 0.00 44 1014.8
20260503024405 64 209 0.0 0.9 0.00 0.00 0.00 42 1014.8
20260503023902 65 198 0.9 2.6 0.00 0.00 0.00 41 1014.7
20260503023359 66 216 1.7 2.6 0.00 0.00 0.00 39 1014.7
20260503022855 66 191 1.7 1.7 0.00 0.00 0.00 39 1014.7
20260503022350 67 194 0.9 2.6 0.00 0.00 0.00 38 1014.6
20260503021847 68 192 0.9 2.6 0.00 0.00 0.00 38 1014.6